Location: McFarlands Corners
(41.4117°N, 81.3382°W)
Time: 12:03:32
(UTC+00:00)

A-11 Canister half - Pass Details

Date: 16 February 2026
Orbit: 1513 x 1686 km, 47.2° (Epoch: 17 March)

Event Time Altitude Azimuth Distance (km) Brightness Sun altitude
Rises 05:33:48 0° 274° (W) 4,920 - -60.9°
Reaches altitude 10° 05:37:04 10° 278° (W) 3,918 - -60.9°
Maximum altitude 05:47:00 63° 358° (N) 1,791 - -60.9°
Drops below altitude 10° 05:56:36 10° 79° (E) 3,788 - -60.7°
Sets 05:59:43 0° 83° (E) 4,750 - -60.6°
